Skip Page Navigation
NASA JPL Caltech
NASA Logo - Jet Propulsion Laboratory + View the NASA Portal
+ Near-Earth Object (NEO) Program
Search JPL
JPL Home Earth Solar System Stars & Galaxies Technology
JPL Solar System Dynamics
BODIES ORBITS EPHEMERIDES TOOLS PHYSICAL DATA DISCOVERY FAQ SITE MAP
JPL Small-Body Database Browser
Search: [ help ]  
15328 (1993 RJ9)
Classification: Main-belt Asteroid          SPK-ID: 2015328
Ephemeris | Orbit Diagram | Orbital Elements | Physical Parameters | Discovery Circumstances ]

[ show orbit diagram ]
Orbital Elements at Epoch 2457000.5 (2014-Dec-09.0) TDB
Reference: JPL 9 (heliocentric ecliptic J2000)
 Element Value Uncertainty (1-sigma)   Units 
e .1857199746170759 4.6488e-08  
a 2.422948828202673 1.8273e-08 AU
q 1.972958833330399 1.1105e-07 AU
i 1.206031463508035 5.0365e-06 deg
node 254.5310963368744 0.00029404 deg
peri 22.14107591592813 0.00029474 deg
M 283.5710253294404 2.3265e-05 deg
tp 2457292.962590601389
(2015-Sep-27.46259060)
9.0267e-05 JED
period 1377.573532424429
3.77
1.5583e-05
4.266e-08
d
yr
n .2613290626790908 2.9562e-09 deg/d
Q 2.872938823074947 2.1666e-08 AU
  Orbit Determination Parameters
   # obs. used (total)      855  
   data-arc span      8341 days (22.84 yr)  
   first obs. used      1992-03-01  
   last obs. used      2015-01-01  
   planetary ephem.      DE431  
   SB-pert. ephem.      SB431-BIG16  
   condition code      0  
   fit RMS      .54933  
   data source      ORB  
   producer      Otto Matic  
   solution date      2015-Jan-08 02:27:00  

Additional Information
 Earth MOID = .958031 AU 
 T_jup = 3.488 
[ show covariance matrix ]

Ephemeris | Orbit Diagram | Orbital Elements | Physical Parameters | Discovery Circumstances ]

Physical Parameter Table
Parameter Symbol Value Units Sigma Reference Notes
absolute magnitude H 14.9 mag n/a MPO253470  

15328 (1993 RJ9)          Discovered 1993-Sep-14 by Debehogne, H., Elst, E. W. at La Silla (809)
Reference: 20000621/Numbers.arcLast Updated: 2004-04-19

Alternate Designations
 1993 RJ9 = 1992 EL15 = 1998 XE21 
Ephemeris | Orbit Diagram | Orbital Elements | Physical Parameters | Discovery Circumstances ]
ABOUT SSD CREDITS/AWARDS PRIVACY/COPYRIGHT GLOSSARY LINKS
FirstGov 2015-Jan-30 10:57 UT
(server date/time)  
NASA Home Page
Site Manager:   Donald K. Yeomans
Webmaster  Alan B. Chamberlin